Regional Weather Roundup
Issued by NWS

Home | Current Version | Previous Version | Graphics & Text | Print | Product List | Glossary On
Versions: 1 2 3 4 5 6 7 8 9 10 11 12 13 14 15 16 17 18 19 20 21 22 23 24 25 26 27 28 29 30 31 32 33 34 35 36 37 38 39 40 41 42 43 44 45 46 47 48 49 50
000
ASUS43 KMKX 192011
RWRWI

WISCONSIN REGIONAL WEATHER ROUNDUP
NATIONAL WEATHER SERVICE MILWAUKEE/SULLIVAN WI
200 PM CST FRI DEC 19 2014

NOTE: "FAIR" INDICATES FEW OR NO CLOUDS BELOW 12,000 FEET WITH NO
SIGNIFICANT WEATHER AND/OR OBSTRUCTIONS TO VISIBILITY.

WIZ001-002-006>008-014>016-023>028-192100-
NORTHWEST WISCONSIN

CITY           SKY/WX    TMP DP  RH WIND       PRES   REMARKS
SUPERIOR ARPT  CLOUDY    26  22  84 CALM      30.22S
ASHLAND        CLOUDY    25  20  81 S5        30.24S WCI  19
HAYWARD        CLOUDY    25  19  78 S7        30.20F WCI  17
SIREN          CLOUDY    27  20  77 S6        30.20F WCI  20
CUMBERLAND     CLOUDY    27  19  74 S7        30.20F WCI  19
RICE LAKE      FLURRIES  26  21  79 SE6       30.23F WCI  20
CHETEK         FLURRIES  26  21  83 SE6       30.22F WCI  19
LADYSMITH      CLOUDY    25  22  87 S5        30.23F WCI  20
EAU CLAIRE     CLOUDY    27  19  72 SE7       30.23F WCI  19
MENOMONIE      CLOUDY    28  20  72 SE6       30.23F WCI  22
NEW RICHMOND   CLOUDY    27  23  85 SE5       30.21F WCI  21
OSCEOLA        CLOUDY    27  22  81 SE8       30.23F WCI  19
$$

WIZ003>005-009-010-017-018-192100-
NORTH CENTRAL WISCONSIN

CITY           SKY/WX    TMP DP  RH WIND       PRES   REMARKS
MANITOWISH WTR CLOUDY    22  17  81 S9        30.19S WCI  12
ARBOR VITAE    CLOUDY    22  20  92 S6        30.20S WCI  14
WOODRUFF       CLOUDY    22  20  92 S6        30.20S WCI  14
RHINELANDER    MOSUNNY   24  18  77 CALM      30.20F
EAGLE RIVER    PTSUNNY   24  20  86 SE3       30.18F
LAND O LAKES   CLOUDY    24  22  91 SE3       30.20F
PHILLIPS       CLOUDY    22  19  89 S6        30.20F WCI  15
TOMAHAWK       CLOUDY    25  17  71 CALM      30.21F
MEDFORD        CLOUDY    21  20  95 S8        30.22S WCI  12
MERRILL        CLOUDY    26  19  74 CALM      30.22F
$$

WIZ029-030-035-036-043>047-192100-
CENTRAL WISCONSIN

CITY           SKY/WX    TMP DP  RH WIND       PRES   REMARKS
WAUSAU         PTSUNNY   27  19  72 SW3       30.22S
MOSINEE        PTSUNNY   28  21  74 S9        30.24F WCI  20
MARSHFIELD     CLOUDY    24  20  84 S8        30.24S WCI  15
STEVENS POINT  PTSUNNY   26  17  68 S7        30.25S WCI  18
WAUPACA        SUNNY     33  19  57 SE6       30.26F WCI  27
WAUTOMA        MOSUNNY   28  18  66 SW5       30.27F WCI  23
WISC RAPIDS    CLOUDY    25  19  78 S6        30.27F WCI  18
CAMP DOUGLAS   CLOUDY    27  25  93 SE5       30.26F WCI  21
$$

WIZ011>013-019>022-031-037>040-048>050-192100-
NORTHEAST WISCONSIN

CITY           SKY/WX    TMP DP  RH WIND       PRES   REMARKS
ANTIGO         SUNNY     27  17  66 S6        30.21S WCI  20
SHAWANO        SUNNY     32  21  64 CALM      30.26F
OCONTO         PTSUNNY   30  22  73 SE5       30.27F WCI  25
STURGEON BAY   SUNNY     27  19  74 NW5       30.28F WCI  21
GREEN BAY      MOSUNNY   30  22  72 W3        30.27F
MANITOWOC      CLOUDY    31  23  72 W5        30.27F WCI  26
APPLETON       PTSUNNY   30  19  64 CALM      30.26F
CLINTONVILLE   SUNNY     30  19  64 S5        30.26F WCI  25
OSHKOSH        CLOUDY    29  19  66 S3        30.27F
$$

WIZ032>034-041-042-053>061-192100-
SOUTHWEST WISCONSIN

CITY           SKY/WX    TMP DP  RH WIND       PRES   REMARKS
LA CROSSE      CLOUDY    30  20  66 S7        30.26F WCI  23
SPARTA         CLOUDY    29  19  65 CALM      30.26F
VIROQUA        CLOUDY    28  21  76 S5        30.22F WCI  22
BOSCOBEL       CLOUDY    31  19  61 CALM      30.27F
PRAIRIE DU CHI CLOUDY    29  20  68 E3        30.26F
PLATTEVILLE    CLOUDY    29  21  72 CALM      30.25F
$$

WIZ056-057-062-063-064-067-068-192100-
SOUTH CENTRAL WISCONSIN

CITY           SKY/WX    TMP DP  RH WIND       PRES   REMARKS
REEDSBURG      CLOUDY    25  20  82 CALM      30.26S
BARABOO/DELLS  CLOUDY    24  20  84 CALM      30.26S
LONE ROCK      CLOUDY    32  18  56 E3        30.27S
MINERAL POINT  CLOUDY    30  21  69 CALM      30.24S
MADISON        FLURRIES  26  20  77 CALM      30.26F
MIDDLETON      CLOUDY    28  22  78 S3        30.26F
WATERTOWN      CLOUDY    28  19  68 W3        30.26F
MONROE         CLOUDY    28  23  80 CALM      30.24F
JANESVILLE     CLOUDY    28  21  74 CALM      30.26F
$$

WIZ051-052-058>065-066-070>072-192100-
SOUTHEAST WISCONSIN

CITY           SKY/WX    TMP DP  RH WIND       PRES   REMARKS
MILWAUKEE      CLOUDY    31  18  58 SW7       30.27F WCI  24
WAUKESHA       CLOUDY    28  18  64 MISG      30.27F
MILWAUKEE/TIMM CLOUDY    30  18  59 W5        30.27F WCI  25
RACINE         CLOUDY    31  19  61 W7        30.28F WCI  24
BURLINGTON     CLOUDY    27  17  66 CALM      30.26F
KENOSHA        CLOUDY    30  20  66 CALM      30.27F
FOND DU LAC    CLOUDY    29  19  66 W5        30.26F WCI  24
SHEBOYGAN      CLOUDY    30  21  69 W7        30.26F WCI  23
WEST BEND      CLOUDY    30  19  64 W3        30.25F
JUNEAU         CLOUDY    27  18  67 CALM      30.26F
$$

LSZ147-162-192100-
LAKE SUPERIOR

STATION/POSITION TIME  TEMP    WIND        PRES    WAVE
                       AIR SEA DIR/SP/G            HT/PER
                 (UTC) (F)     (DEG/KT/KT) (MB)    (FT/S)
DEVILS ISLAND    2000   24     230/  4/  5 1025.0F
PORT WING        1900   25     170/  5/  8 1024.0F
SAXON HARBOR     1900   25     210/  3/  7 1024.0F
$$

LMZ867-665-643>646-192100-
LAKE MICHIGAN

STATION/POSITION TIME  TEMP    WIND        PRES    WAVE
                       AIR SEA DIR/SP/G            HT/PER
                 (UTC) (F)     (DEG/KT/KT) (MB)    (FT/S)
CHAMBERS ISLAND  1900   29     310/  2/  4 1025.4S
NORTHPORT PIER   1921   28     290/  2/  6 1025.1S
SISTER BAY       1928          340/  6/  7   N/A
ALGOMA LAKESHORE 1914          330/  5/  7   N/A
KEWAUNEE LAKESHO 1900   31     320/  1/  5 1024.3F
SHEBOYGAN LAKESH 2000   31 33  310/  4/  5 1025.9F
PORT WASHINGTON  1900   31     280/  5/  7 1026.1
MILWAUKEE LAKESH 1900   31     230/  4/  6   N/A
KENOSHA   LAKESH 2000   30     270/  5/  8 1024.7F
$$

TC  - TEMPERATURE IN CELSIUS
VSB - VISIBILITY IN STATUTE MILES
WCI - WIND CHILL INDEX
HX  - HEAT INDEX




USA.gov is the U.S. government's official web portal to all federal, state and local government web resources and services.